sat.trackr.live / text

‹ back to catalog

WILDBLUE-1

NORAD 29643 · 2006-054A

PAYLOAD ACTIVE UNKNOWN

§ Identity

Operator
Country
US
Launch date
2006-12-08
Launch site
FRGUI
Launch vehicle
Mass (kg)
RCS (m²)
262.62

Purposes: comms

External: N2YO · Heavens-Above · Gunter

§ Orbital elements

Epoch: 2026-09-10T02:18:24.133824Z

Period
1,452.01 min
Inclination
3.0168°
Eccentricity
0.0004758
Mean motion
0.99172886 rev/d
Perigee alt
36,077.3 km
Apogee alt
36,117.7 km
Semi-major
42,475.6 km
B*
0.0000e+0
RAAN
79.3640°
Arg perigee
93.7041°
Mean anomaly
268.9406°
Rev number
5,464

§ Raw data

WILDBLUE-11 29643U 06054A   26253.09611266  .00000078  00000+0  00000+0 0  99912 29643   3.0168  79.3640 0004758  93.7041 268.9406  0.99172886 54645

JSON: /api/v1/satellites/29643 · /tle

For live sub-satellite position, see the globe view (requires WebGL).

§ Visibility from observer

Set your observer location to see the next 7 days of passes ≥ 10°. The values pass through the URL so the page stays shareable.

No JS? Fill the form by hand. The geolocation button needs JavaScript.